CZ-6A DEB

Satellite information

Favourite Embed

Satellite Type and Status

DEBRISIN ORBIT

Key statistics

Satellite CZ-6A DEB at a glance.

Uptime

495

Days in orbit

Revolutions

≈ 14.0

Per day

Orbit

LEO

Low Earth Orbit

Inclination

89.0

Latest

Satellite identification and parameters

Extended collection of information and parameters for CZ-6A DEB.

Object identification

Identified? True

Debris? True

Object name: CZ-6A DEB

International designator: 2024-140SL

Object number (NORAD): 61275

Object ID (CCSDS): 61275

Country: PEOPLES REPUBLIC OF CHINA (PRC)

Current information (Y/N): Y

RCS size: SMALL

Orbital parameters

Period: 102.557 minutes

Inclination: 88.9618 deg

SMA: 7257.77 km

Apoapsis: 983.445 km

Periapsis: 775.824 km

RAAN: 295.0746 deg

Eccentricy: 0.01430336

Argument of periapsis: 85.8199 deg

Mean anomaly: 275.9314 deg

Mean motion: 14.0409979 rev/day

Mean motion (dot): 0.00004589 rev/day2

B* drag term: 0.0026376563 1/REarth

Two-line elements (TLE)

Creation date: Dec. 14, 2025, 3:07 a.m.

Reference frame: TEME

Reference center: EARTH

Epoch: Dec. 13, 2025, 2:04 p.m. UTC

TLE line 0: 0 CZ-6A DEB

TLE line 1: 1 61275U 24140SL 25347.58634806 .00004589 00000-0 26377-2 0 9996

TLE line 2: 2 61275 88.9618 295.0746 0143034 85.8199 275.9314 14.04099790 66434

Live tracking on map

Real-time ground track for satellite CZ-6A DEB.

In-orbit conjunctions

A list of the most updated potential collisions computed for object CZ-6A DEB.

Target Orbit TCA Probability of collision Miss distance Type
DELTA 1 DEB SSO 2025-03-02 07:40:58 0.0003583476 327.0 (m) DEBRIS
CZ-6A DEB LEO 2025-02-26 08:48:09 0.0001408599 212.0 (m) DEBRIS
FENGYUN 1C DEB SSO 2025-01-04 06:51:43 0.0002878167 539.0 (m) DEBRIS
CZ-6A DEB LEO 2024-11-18 16:14:03 0.0001748403 605.0 (m) DEBRIS
DMSP 5D-2 F11 DEB SSO 2024-10-24 10:57:09 0.0001069057 660.0 (m) DEBRIS

Associated space launch

18 Low Earth Orbit communication satellites with Ku, Q and V band payloads for the G60 constellation operated by Shanghai Spacecom Satellite Technology (SSST) with funding backed by the Shanghai local government. Initial constellation will consist of 1296 satellites by 2027 with long term plans to expand it to 12000 satellites.

CZ-6A DEB was lifted into orbit during the mission ‘Long March 6A | G60 Polar Group 01’, on board a Long March 6A space rocket.

The launch took place on Aug. 6, 2024, 6:42 a.m. from Launch Complex 9A.

For more information about the launch, click the button.

Launch to space Long March 6A | G60 Polar Group 01
Long March 6A | G60 Polar Group 01

Agency: N/A

Status: Launch Successful

Launch date: Aug. 6, 2024, 6:42 a.m. UTC

Rocket: Long March 6A

Launch pad: Launch Complex 9A

Location: Taiyuan Satellite Launch Center, People's Republic of China

...

Latest news about this satellite

News about space launch
Brightness of first Chinese broadband constellation satellites alarms astronomers

The first satellites of a Chinese broadband constellation are significantly brighter than those of Western systems, posing a new challenge for astronomers.

News about space launch
Chinese rocket stage breaks up into cloud of more than 700 pieces of space debris

HELSINKI — A Chinese Long March 6A rocket’s upper stage has fragmented into a cloud of over 700 pieces of space debris, adding to concerns about long-term orbital safety. China […]

News about space launch
China's Thousand Sails Megaconstellation Kicks Off with Dangerous Debris Field

China's Thousand Sails Megaconstellation Kicks Off with Dangerous Debris Field


Newsletter sign-up

Weekly statistics, charts and insights to help you stay on top of the space industry.